Regional Weather Roundup
Issued by NWS

Home | Current Version | Previous Version | Graphics & Text | Print | Product List | Glossary On
Versions: 1 2 3 4 5 6 7 8 9 10 11 12 13 14 15 16 17 18 19 20 21 22 23 24 25 26 27 28 29 30 31 32 33 34 35 36 37 38 39 40 41 42 43 44 45 46 47 48 49 50
000
ASUS45 KBOI 261910
RWRID
WEATHER ROUNDUP FOR IDAHO
NATIONAL WEATHER SERVICE BOISE ID
1200 PM MST WED NOV 26 2014

NOTE: "FAIR" INDICATES FEW OR NO CLOUDS BELOW 12000 FEET
WITH NO SIGNIFICANT WEATHER AND/OR OBSTRUCTIONS TO VISIBILITY

IDZ012-014-262000-
SOUTHWEST IDAHO


CITY           SKY/WX    TMP DP  RH WIND       PRES   REMARKS
BOISE          PTSUNNY   55  40  56 SE3       30.31F
CALDWELL       NOT AVBL
MOUNTAIN HOME  MOSUNNY   54  39  57 N1        30.32F
$$

IDZ016-017-262000-
SOUTHCENTRAL IDAHO


CITY           SKY/WX    TMP DP  RH WIND       PRES   REMARKS
BURLEY         SUNNY     53  33  46 W12G21    30.32F
JEROME         SUNNY     52  37  56 SW12      30.34F
TWIN FALLS     SUNNY     58  36  43 W12       30.33F
$$

IDZ019>023-262000-
SOUTHEAST IDAHO


CITY           SKY/WX    TMP DP  RH WIND       PRES   REMARKS
IDAHO FALLS    PTSUNNY   47  37  68 SW28G35   30.27F
POCATELLO      MOSUNNY   53  36  52 SW31G38   30.33S
REXBURG        PTSUNNY   42  36  79 SW21      30.28S
$$

IDZ006-010-011-018-031-032-262000-
CENTRAL IDAHO MOUNTAINS


CITY           SKY/WX    TMP DP  RH WIND       PRES   REMARKS
MCCALL         CLOUDY    39  38  96 CALM      30.30F
HAILEY         MOSUNNY   43  36  75 SE7       30.31F
STANLEY          N/A     44  30  57 NW3       30.33F
SALMON         CLOUDY    34  34 100 CALM      30.22F VSB 1
CHALLIS        PTSUNNY   52  32  46 SE13      30.23F
$$

IDZ002-004-006-007-026-262000-
NORTHERN IDAHO


CITY           SKY/WX    TMP DP  RH WIND       PRES   REMARKS
LEWISTON       CLOUDY    44  42  93 NW5       30.21F
LOWELL           N/A     41  38  89 CALM      30.28F
COEUR D`ALENE  CLOUDY    36  34  93 CALM      30.15F VSB 3/4
MULLAN PASS    LGT RAIN  33  33 100 VRB6      30.13R VSB<1/4 WCI  28
$$


USA.gov is the U.S. government's official web portal to all federal, state and local government web resources and services.